Latest Weather Observations for Port Augusta

IDS60801

Issued at 4:05 pm CST Tuesday 29 July 2014 (issued every 30 minutes, with the page automatically refreshed every 10 minutes)

About weather observations | Map of weather stations | Latest weather observations for SA | Other Formats
Station Details ID: 018201 Name: PORT AUGUSTA AERO Lat: -32.51 Lon: 137.72 Height: 13.97 m
Data from the previous 72 hours. | See also: Recent months at Port Augusta
Date/Time
CST
Temp
°C
App
Temp
°C
Dew
Point
Rel
Hum
%
Delta-T
°C
Wind Press
QNH
hPa
Press
MSL
hPa
Rain
since 9 am
mm
Dir
 
Spd
km/h
Gust
km/h
Spd
kts
Gust
kts
29/04:00pm 21.6 16.6 6.3 37 7.7 WNW 22 33 12 18 1018.6 - 0.0
29/03:30pm 21.5 15.9 7.0 39 7.4 W 26 35 14 19 1018.8 - 0.0
29/03:00pm 21.6 15.2 7.1 39 7.4 WNW 30 41 16 22 1018.7 1018.7 0.0
29/02:30pm 21.3 15.3 7.2 40 7.2 W 28 35 15 19 1018.9 - 0.0
29/02:00pm 20.8 16.0 7.4 42 6.9 W 22 33 12 18 1019.1 - 0.0
29/01:30pm 20.0 15.2 7.4 44 6.4 W 22 33 12 18 1019.6 - 0.0
29/01:00pm 19.8 14.7 7.5 45 6.3 W 24 35 13 19 1019.9 - 0.0
29/12:30pm 19.6 13.7 7.7 46 6.1 WSW 28 41 15 22 1020.2 - 0.0
29/12:00pm 19.9 14.3 7.0 43 6.5 W 26 35 14 19 1020.6 1020.6 0.0
29/11:30am 19.5 14.8 7.9 47 6.0 W 22 30 12 16 1021.1 - 0.0
29/11:00am 18.9 15.7 8.3 50 5.5 WNW 15 22 8 12 1021.3 - 0.0
29/10:30am 18.0 14.7 8.0 52 5.1 WNW 15 22 8 12 1021.4 - 0.0
29/10:00am 16.6 13.3 8.1 57 4.3 NNW 15 20 8 11 1021.1 - 0.0
29/09:30am 14.1 10.3 7.4 64 3.3 N 17 20 9 11 1021.2 - 0.0
29/09:00am 13.1 9.6 7.3 68 2.8 N 15 20 8 11 1021.2 1021.2 0.0
29/08:30am 10.1 7.4 7.3 83 1.3 N 11 17 6 9 1021.0 - 0.0
29/08:00am 7.5 3.4 6.1 91 0.6 N 17 19 9 10 1020.2 - 0.0
29/07:30am 4.9 0.4 4.0 94 0.4 N 17 19 9 10 1020.8 - 0.0
29/07:00am 3.4 0.1 2.5 94 0.4 NNW 9 11 5 6 1020.9 - 0.0
29/06:30am 3.0 0.0 2.0 93 0.4 W 7 11 4 6 1020.9 - 0.0
29/06:00am 3.4 -0.3 2.4 93 0.4 NNW 11 13 6 7 1020.2 1020.2 0.0
29/05:30am 3.7 0.1 2.7 93 0.4 NW 11 13 6 7 1019.9 - 0.0
29/05:00am 4.6 1.5 3.4 92 0.5 NW 9 11 5 6 1019.8 - 0.0
29/04:30am 4.2 1.5 2.7 90 0.6 W 6 7 3 4 1019.7 - 0.0
29/04:00am 6.1 3.5 4.4 89 0.7 NW 7 9 4 5 1019.8 - 0.0
29/03:30am 6.2 3.7 4.5 89 0.7 NW 7 9 4 5 1019.6 - 0.0
29/03:00am 7.6 5.6 6.1 90 0.7 NNW 6 7 3 4 1019.3 1019.3 0.0
29/02:30am 8.0 6.0 6.1 88 0.9 N 6 9 3 5 1019.4 - 0.0
29/02:00am 8.9 7.0 6.9 87 0.9 WNW 6 7 3 4 1019.4 - 0.0
29/01:30am 8.6 6.6 6.2 85 1.1 WNW 6 7 3 4 1019.7 - 0.0
29/01:00am 9.3 7.0 7.4 88 0.9 NW 9 13 5 7 1019.5 - 0.0
29/12:30am 9.9 9.3 7.2 83 1.3 CALM 0 0 0 0 1019.6 - 0.0
29/12:00am 10.4 8.7 7.5 82 1.4 SW 6 9 3 5 1019.7 1019.7 0.0
 
Date/Time
CST
Temp
°C
App
Temp
°C
Dew
Point
Rel
Hum
%
Delta-T
°C
Wind Press
QNH
hPa
Press
MSL
hPa
Rain
since 9 am
mm
Dir
 
Spd
km/h
Gust
km/h
Spd
kts
Gust
kts
28/11:30pm 10.9 9.3 7.8 81 1.5 SW 6 7 3 4 1019.5 - 0.0
28/11:00pm 11.0 9.4 7.9 81 1.5 SW 6 9 3 5 1019.5 - 0.0
28/10:30pm 11.5 9.7 8.0 79 1.7 SSW 7 11 4 6 1019.5 - 0.0
28/10:00pm 12.7 11.3 8.8 77 2.0 ESE 6 9 3 5 1019.6 - 0.0
28/09:30pm 14.0 12.1 9.2 73 2.4 ESE 9 11 5 6 1019.4 - 0.0
28/09:00pm 12.8 11.0 9.3 79 1.8 ESE 9 11 5 6 1019.2 1019.2 0.0
28/08:30pm 13.2 10.9 9.1 76 2.1 ESE 11 13 6 7 1019.0 - 0.0
28/08:00pm 14.0 11.8 9.4 74 2.4 ESE 11 15 6 8 1018.7 - 0.0
28/07:30pm 14.5 12.4 9.9 74 2.4 SE 11 15 6 8 1018.4 - 0.0
28/07:00pm 15.0 12.3 8.9 67 3.1 SE 13 17 7 9 1018.1 - 0.0
28/06:30pm 17.0 13.3 4.3 43 6.0 SW 13 17 7 9 1017.5 - 0.0
28/06:00pm 19.1 14.4 3.3 35 7.4 W 17 20 9 11 1017.0 1017.0 0.0
28/05:30pm 21.5 15.8 2.7 29 8.9 WNW 22 28 12 15 1016.8 - 0.0
28/05:00pm 22.1 17.6 2.2 27 9.3 WNW 15 19 8 10 1016.7 - 0.0
28/04:30pm 22.9 17.4 1.8 25 9.9 WNW 20 28 11 15 1016.6 - 0.0
28/04:00pm 22.6 15.9 1.6 25 9.8 NW 26 37 14 20 1016.6 - 0.0
28/03:30pm 22.8 16.4 1.2 24 10.0 NW 24 33 13 18 1016.7 - 0.0
28/03:00pm 22.9 17.4 1.8 25 9.9 NNW 20 28 11 15 1016.8 1016.8 0.0
28/02:30pm 23.0 17.5 1.9 25 9.9 NW 20 30 11 16 1016.9 - 0.0
28/02:00pm 23.2 17.6 1.5 24 10.1 NNW 20 28 11 15 1017.3 - 0.0
28/01:30pm 21.3 15.2 0.5 25 9.4 N 22 30 12 16 1017.8 - 0.0
28/01:00pm 21.7 15.3 0.8 25 9.5 NNW 24 32 13 17 1018.4 - 0.0
28/12:30pm 20.1 13.6 0.5 27 8.8 N 24 35 13 19 1018.9 - 0.0
28/12:00pm 19.7 12.8 0.2 27 8.6 NNW 26 35 14 19 1019.5 1019.5 0.0
28/11:30am 19.2 12.8 0.8 29 8.2 N 24 35 13 19 1019.9 - 0.0
28/11:00am 17.5 10.7 0.6 32 7.4 N 26 35 14 19 1020.5 - 0.0
28/10:30am 16.7 10.7 0.8 34 6.9 NNW 22 30 12 16 1021.0 - 0.0
28/10:00am 15.5 9.7 -0.3 34 6.7 N 20 28 11 15 1021.2 - 0.0
28/09:30am 14.7 9.7 1.3 40 5.8 N 17 22 9 12 1021.3 - 0.0
28/09:00am 13.0 8.4 1.4 45 4.9 NNW 15 20 8 11 1021.1 1021.1 0.0
28/08:30am 10.8 6.6 1.4 52 3.9 NNW 13 20 7 11 1021.0 - 0.0
28/08:00am 8.3 4.0 1.2 61 2.9 NW 13 20 7 11 1021.0 - 0.0
28/07:30am 5.0 0.6 0.6 73 1.7 NW 13 17 7 9 1020.6 - 0.0
28/07:00am 4.8 0.8 0.6 74 1.6 WNW 11 13 6 7 1020.5 - 0.0
28/06:30am 6.0 2.5 1.2 71 1.9 NNW 9 11 5 6 1020.4 - 0.0
28/06:00am 6.3 2.1 1.4 71 2.0 N 13 17 7 9 1020.2 1020.2 0.0
28/05:30am 7.4 3.6 1.5 66 2.4 NW 11 13 6 7 1020.2 - 0.0
28/05:00am 7.3 2.7 1.8 68 2.2 WNW 15 15 8 8 1020.4 - 0.0
28/04:30am 7.2 3.5 2.3 71 2.0 WNW 11 13 6 7 1020.2 - 0.0
28/04:00am 7.7 4.0 2.4 69 2.2 NNW 11 13 6 7 1020.2 - 0.0
28/03:30am 6.3 2.8 1.4 71 2.0 N 9 13 5 7 1020.3 - 0.0
28/03:00am 6.6 2.7 1.3 69 2.1 NNW 11 13 6 7 1020.5 1020.5 0.0
28/02:30am 6.6 2.3 1.3 69 2.1 NNW 13 15 7 8 1020.6 - 0.0
28/02:00am 5.4 1.5 1.3 75 1.6 W 11 13 6 7 1020.7 - 0.0
28/01:30am 5.0 1.0 0.6 73 1.7 W 11 15 6 8 1020.4 - 0.0
28/01:00am 7.0 3.5 1.1 66 2.4 WNW 9 9 5 5 1020.4 - 0.0
28/12:30am 7.5 3.3 1.6 66 2.4 WNW 13 15 7 8 1020.8 - 0.0
28/12:00am 8.1 4.7 1.9 65 2.5 NW 9 11 5 6 1020.9 1020.9 0.0
 
Date/Time
CST
Temp
°C
App
Temp
°C
Dew
Point
Rel
Hum
%
Delta-T
°C
Wind Press
QNH
hPa
Press
MSL
hPa
Rain
since 9 am
mm
Dir
 
Spd
km/h
Gust
km/h
Spd
kts
Gust
kts
27/11:30pm 6.8 3.3 1.3 68 2.2 W 9 11 5 6 1021.0 - 0.0
27/11:00pm 7.5 4.1 1.6 66 2.4 W 9 11 5 6 1021.1 - 0.0
27/10:30pm 10.1 6.7 2.0 57 3.4 WNW 9 11 5 6 1021.2 - 0.0
27/10:00pm 10.6 6.9 2.4 57 3.5 W 11 15 6 8 1021.2 - 0.0
27/09:30pm 11.1 7.4 2.4 55 3.7 NW 11 15 6 8 1021.2 - 0.0
27/09:00pm 12.6 8.6 3.0 52 4.2 NNW 13 20 7 11 1021.2 1021.2 0.0
27/08:30pm 10.5 6.5 3.1 60 3.2 N 13 15 7 8 1021.0 - 0.0
27/08:00pm 11.1 7.2 3.2 58 3.5 N 13 17 7 9 1021.0 - 0.0
27/07:30pm 11.3 7.0 3.1 57 3.6 N 15 17 8 9 1020.9 - 0.0
27/07:00pm 11.5 7.6 3.3 57 3.6 N 13 15 7 8 1020.7 - 0.0
27/06:30pm 13.1 9.1 2.9 50 4.5 N 13 15 7 8 1020.5 - 0.0
27/06:00pm 15.7 12.6 3.5 44 5.6 N 9 13 5 7 1020.5 1020.5 0.0
27/05:30pm 18.1 13.3 2.8 36 7.0 N 17 22 9 12 1020.2 - 0.0
27/05:00pm 20.5 15.1 2.3 30 8.4 NNW 20 28 11 15 1020.3 - 0.0
27/04:30pm 21.4 15.3 2.6 29 8.8 NNW 24 30 13 16 1020.2 - 0.0
27/04:00pm 21.8 15.7 2.5 28 9.1 NNW 24 35 13 19 1020.5 - 0.0
27/03:30pm 22.1 16.0 2.8 28 9.2 NNW 24 35 13 19 1020.8 - 0.0
27/03:00pm 21.8 15.3 2.5 28 9.1 NNW 26 35 14 19 1021.2 1021.2 0.0
27/02:30pm 21.8 15.3 2.5 28 9.1 NNW 26 35 14 19 1021.6 - 0.0
27/02:00pm 21.5 14.6 2.7 29 8.9 N 28 41 15 22 1021.6 - 0.0
27/01:30pm 21.0 13.3 2.3 29 8.7 NW 32 43 17 23 1022.1 - 0.0
27/01:00pm 20.7 14.8 3.9 33 8.1 N 24 33 13 18 1022.8 - 0.0
27/12:30pm 18.9 12.6 3.5 36 7.2 N 26 35 14 19 1023.6 - 0.0
27/12:00pm 18.9 13.4 3.9 37 7.1 N 22 32 12 17 1024.6 1024.6 0.0
27/11:30am 18.0 12.6 4.6 41 6.4 N 22 28 12 15 1025.2 - 0.0
27/11:00am 16.7 10.8 4.1 43 5.9 NNW 24 30 13 16 1025.8 - 0.0
27/10:30am 15.7 10.2 4.1 46 5.4 N 22 30 12 16 1026.0 - 0.0
27/10:00am 14.8 8.7 4.8 51 4.7 NNW 26 33 14 18 1026.0 - 0.0
27/09:30am 13.0 8.2 4.7 57 3.8 NNW 19 24 10 13 1026.0 - 0.0
27/09:00am 10.4 6.4 5.0 69 2.4 W 15 22 8 12 1025.7 1025.7 0.0
27/08:30am 8.7 5.1 4.9 77 1.7 NW 13 17 7 9 1025.0 - 0.0
27/08:00am 6.6 2.9 4.3 85 1.0 NNW 13 19 7 10 1025.3 - 0.0
27/07:30am 5.3 0.6 3.2 86 0.9 NW 17 19 9 10 1025.7 - 0.0
27/07:00am 3.5 -1.0 2.2 91 0.5 WNW 15 17 8 9 1025.8 - 0.0
27/06:30am 3.3 -1.3 1.7 89 0.6 WNW 15 17 8 9 1025.6 - 0.0
27/06:00am 3.3 -0.8 2.0 91 0.5 WNW 13 17 7 9 1025.3 1025.3 0.0
27/05:30am 1.9 -2.4 0.7 92 0.4 W 13 15 7 8 1025.3 - 0.0
27/05:00am 1.8 -1.8 0.6 92 0.4 WSW 9 11 5 6 1025.2 - 0.0
27/04:30am 1.8 -2.2 0.6 92 0.4 W 11 13 6 7 1025.1 - 0.0
27/04:00am 2.1 0.2 0.6 90 0.6 CALM 0 0 0 0 1025.3 - 0.0
27/03:30am 2.4 -0.6 0.9 90 0.6 WNW 6 6 3 3 1025.4 - 0.0
27/03:00am 3.2 0.3 1.7 90 0.6 WNW 6 7 3 4 1025.8 1025.8 0.0
27/02:30am 4.0 1.3 2.7 91 0.5 WNW 6 7 3 4 1025.9 - 0.0
27/02:00am 3.6 0.6 2.3 91 0.5 W 7 9 4 5 1025.9 - 0.0
27/01:30am 3.8 0.5 2.5 91 0.5 WSW 9 11 5 6 1026.0 - 0.0
27/01:00am 3.8 0.1 2.5 91 0.5 WSW 11 13 6 7 1026.0 - 0.0
27/12:30am 3.9 0.2 2.4 90 0.6 WSW 11 13 6 7 1026.0 - 0.0
27/12:00am 4.1 1.8 2.6 90 0.6 W 4 7 2 4 1026.2 1026.2 0.0
 
Date/Time
CST
Temp
°C
App
Temp
°C
Dew
Point
Rel
Hum
%
Delta-T
°C
Wind Press
QNH
hPa
Press
MSL
hPa
Rain
since 9 am
mm
Dir
 
Spd
km/h
Gust
km/h
Spd
kts
Gust
kts
26/11:30pm 4.4 1.7 2.8 89 0.6 W 6 7 3 4 1026.2 - 0.0
26/11:00pm 4.5 1.3 3.2 91 0.5 W 9 11 5 6 1026.6 - 0.0
26/10:30pm 4.4 1.2 2.8 89 0.6 W 9 11 5 6 1026.7 - 0.0
26/10:00pm 5.3 2.7 3.3 87 0.8 W 6 7 3 4 1026.8 - 0.0
26/09:30pm 5.6 2.8 3.4 86 0.9 W 7 9 4 5 1027.0 - 0.0
26/09:00pm 6.0 3.5 3.5 84 1.0 WNW 6 13 3 7 1027.0 1027.0 0.0
26/08:30pm 7.2 5.1 4.0 80 1.4 NW 4 6 2 3 1026.8 - 0.0
26/08:00pm 8.4 6.8 4.6 77 1.7 WSW 2 6 1 3 1026.7 - 0.0
26/07:30pm 8.5 5.6 4.5 76 1.8 WSW 9 11 5 6 1026.5 - 0.0
26/07:00pm 10.2 7.7 4.6 68 2.5 NNW 7 9 4 5 1026.1 - 0.0
26/06:30pm 12.9 10.1 5.3 60 3.5 N 9 11 5 6 1025.8 - 0.0
26/06:00pm 14.1 10.9 5.2 55 4.1 NNW 11 13 6 7 1025.6 1025.6 0.0
26/05:30pm 15.3 12.2 5.5 52 4.7 NNW 11 13 6 7 1025.6 - 0.0
26/05:00pm 17.7 14.2 5.6 45 5.9 NNW 13 17 7 9 1025.6 - 0.0
26/04:30pm 18.7 15.1 5.2 41 6.5 NNW 13 19 7 10 1025.5 - 0.0

Other Formats:

Comma delimited format used in spreadsheet applications
http://www.bom.gov.au/fwo/IDS60801/IDS60801.95666.axf

JavaScript Object Notation format (JSON) in row-major order
http://www.bom.gov.au/fwo/IDS60801/IDS60801.95666.json